This demonstration page uses our WeatherBlox Daily Observations layout. Learn more.

Left ArrowRight Arrow

34.02893, -84.19858

Hourly Observations for November 19, 2019

Temp ( °F °C ) Dew Point ( °F °C ) Humidity (%) Winds ( mph kmh ) Pressure ( in mb ) Visibility ( mi km ) Precip ( " mm )
12:53 am 00:53 Clear 46 7.8 37 2.8 71 71 VRB 3 6 29.81 1009 10 16 0.00 0.00
1:53 am 01:53 Clear 46 7.8 37 2.8 71 71 W 6 9 29.80 1009 10 16 0.00 0.00
2:53 am 02:53 Mostly Cloudy 46 7.8 37 2.8 71 71 W 6 9 29.81 1009 10 16 0.00 0.00
3:53 am 03:53 Mostly Cloudy 45 7.2 37 2.8 74 74 WNW 8 13 29.83 1010 10 16 0.00 0.00
4:53 am 04:53 Cloudy 44 6.7 36 2.2 73 73 W 6 9 29.83 1010 10 16 0.00 0.00
5:53 am 05:53 Cloudy 44 6.7 36 2.2 73 73 W 9 15 29.85 1011 10 16 0.00 0.00
6:53 am 06:53 Partly Cloudy 44 6.7 36 2.2 73 73 WNW 8 13 29.87 1011 10 16 0.00 0.00
7:53 am 07:53 Cloudy 44 6.7 36 2.2 73 73 WNW 9 15 29.88 1012 10 16 0.00 0.00
8:53 am 08:53 Cloudy 46 7.8 35 1.7 66 66 NW 8 13 29.91 1013 10 16 0.00 0.00
9:53 am 09:53 Mostly Cloudy 48 8.9 36 2.2 63 63 WNW 8 13 29.92 1013 10 16 0.00 0.00
10:53 am 10:53 Cloudy 50 10 36 2.2 59 59 WNW 7 11 29.91 1013 10 16 0.00 0.00
11:53 am 11:53 Mostly Cloudy 54 12.2 37 2.8 53 53 WNW 8 13 29.90 1013 10 16 0.00 0.00
12:53 pm 12:53 Sunny 57 13.9 37 2.8 47 47 W 8 13 29.88 1012 10 16 0.00 0.00
1:53 pm 13:53 Sunny 58 14.4 37 2.8 46 46 WSW 6 9 29.85 1011 10 16 0.00 0.00
3:53 pm 15:53 Sunny 60 15.6 38 3.3 44 44 SW 12 19 29.86 1011 10 16 0.00 0.00
4:53 pm 16:53 Sunny 60 15.6 37 2.8 42 42 WSW 7 11 29.88 1012 10 16 0.00 0.00
5:53 pm 17:53 Mostly Clear 56 13.3 38 3.3 51 51 WSW 5 7 29.91 1013 10 16 0.00 0.00
7:53 pm 19:53 Mostly Cloudy 52 11.1 39 3.9 61 61 Calm 29.95 1014 10 16 0.00 0.00
8:53 pm 20:53 Clear 50 10 39 3.9 66 66 WSW 3 6 29.96 1015 10 16 0.00 0.00
9:53 pm 21:53 Clear 48 8.9 39 3.9 71 71 SW 5 7 29.96 1015 10 16 0.00 0.00
10:53 pm 22:53 Clear 48 8.9 40 4.4 74 74 W 5 7 29.97 1015 10 16 0.00 0.00
11:53 pm 23:53 Clear 45 7.2 39 3.9 80 80 WSW 6 9 29.98 1015 10 16 0.00 0.00

Powered by AerisWeather